Vorticity
9 4 5 6 6 4 3 5 5 4 5 8 12 13 10 8 7 8 7 7 8 6 5 7 5 6 5 4 4 4 3 0 -1 -2 5 9 8 5 4 2 3 3 3 3 6 4 2
4 5 4 3 4 4 1 2 6 6 5 6 7 9 10 9 9 8 8 6 5 5 3 4 5 5 5 5 5 4 5 5 4 3 1 1 7 9 6 5 3 4 2 5 6 6 2
4 3 4 5 3 2 2 3 2 5 10 7 6 5 6 5 4 3 4 4 4 4 5 5 6 7 5 5 6 4 4 4 4 6 6 3 1 7 9 7 6 4 2 4 5 9 3
5 3 3 3 4 2 3 4 6 4 4 7 7 5 4 3 3 2 3 4 5 5 5 5 7 8 4 3 3 3 5 4 4 5 7 8 4 3 5 10 8 4 4 4 5 8 8
4 4 5 5 6 4 3 6 3 5 5 2 6 4 3 3 3 2 3 5 6 11 8 8 5 6 5 4 4 4 4 5 5 5 5 8 7 5 3 5 10 5 4 5 5 10 6
4 5 6 6 6 5 4 5 3 3 5 5 2 3 6 6 5 3 4 4 5 3 -0 4 6 3 6 6 5 6 6 7 6 6 6 7 7 7 6 3 5 8 8 6 6 6 7
5 4 3 3 5 6 7 6 5 3 3 4 4 5 4 3 5 5 3 3 4 3 5 5 2 3 7 2 6 5 6 5 6 6 7 5 5 8 6 5 4 3 4 10 10 7 10
7 7 7 7 6 6 5 6 6 5 6 4 5 5 5 6 5 4 4 4 3 2 3 4 4 3 7 2 6 5 6 6 6 7 6 6 5 6 7 6 5 6 4 6 7 11 10
4 5 5 5 6 7 7 8 8 9 9 8 6 5 5 5 4 3 3 4 4 6 4 6 5 1 10 1 9 6 5 5 6 7 7 6 4 5 5 5 6 6 4 6 6 6 12
5 5 5 4 4 3 3 4 4 4 5 6 7 8 8 7 5 5 7 7 5 5 7 6 9 13 4 5 7 5 5 5 4 5 5 5 5 4 5 4 6 6 5 5 5 9 8
4 4 4 5 5 5 5 5 5 5 6 6 6 7 7 6 7 8 8 8 9 8 3 10 8 3 6 8 4 4 4 5 4 4 6 4 5 7 5 6 6 5 6 6 5 9 7
3 3 3 3 3 3 3 3 3 4 5 6 5 5 5 5 5 4 4 4 4 6 6 7 9 4 6 3 6 4 5 6 4 5 5 5 6 5 7 8 6 6 5 7 8 9 5
4 3 4 3 3 3 2 3 2 3 3 5 6 7 7 8 8 7 7 8 7 6 4 7 7 3 7 5 6 6 6 6 5 5 6 4 5 6 8 6 9 7 10 5 6 9 5
7 6 6 6 6 6 6 7 8 9 10 8 7 7 6 7 6 6 6 7 7 7 7 6 7 9 6 6 7 4 7 6 6 6 4 5 9 7 5 7 9 9 8 6 5 6 5
5 6 6 6 6 6 7 7 6 6 5 6 6 6 6 6 6 6 4 5 5 7 8 8 6 7 8 7 8 6 6 6 5 4 6 6 8 10 7 10 12 8 8 6 6 2 5
4 5 6 5 5 5 5 5 4 4 4 3 3 4 4 3 2 3 4 5 3 4 5 4 6 6 6 7 7 7 8 7 3 7 5 4 7 12 5 15 12 7 7 6 3 3 3
3 3 4 6 6 4 4 4 3 4 4 3 3 3 2 3 3 2 4 4 6 5 5 6 6 4 5 4 5 4 4 3 8 6 6 8 9 6 10 11 11 6 2 6 5 2 7
3 3 3 3 3 5 4 4 4 4 3 3 2 3 3 4 4 3 4 4 5 6 5 5 8 7 6 6 5 4 4 5 4 4 7 9 5 6 8 6 10 -1 2 5 3 7 6
6 4 4 4 4 5 5 4 4 3 3 4 4 4 3 3 3 4 4 3 3 5 6 8 7 7 10 10 6 5 7 6 6 8 6 7 6 6 12 6 10 5 6 11 -6 12 19
5 5 5 5 5 4 4 4 4 4 4 3 3 4 4 4 4 4 5 5 5 5 3 6 8 9 8 6 5 6 7 6 7 8 8 1 9 8 7 11 4 7 -0 -16 12 22 16
2 8 -2 4 9 11 6 7 7 5 4 5 5 5 4 5 6 6 6 7 9 9 5 8 6 7 3 6 7 8 5 6 6 11 10 8 8 8 6 -3 -4 7 15 26 11 16 -4
14 15 8 9 -3 0 2 0 2 6 9 9 6 6 3 3 1 6 7 11 10 15 13 5 6 8 4 8 6 6 6 5 16 11 6 2 2 11 4 17 2 -2 23 22 23 -11 -3
3 22 23 24 28 26 7 3 8 8 4 -1 -1 -2 -4 -4 -4 7 10 6 14 21 22 25 22 21 22 19 12 8 12 11 13 16 5 18 9 12 9 14 17 14 5 3 3 -10 17
-8 1 4 12 3 3 12 33 24 9 1 13 24 25 19 18 15 15 6 4 5 3 0 3 8 5 12 14 18 19 14 13 10 9 15 6 7 15 16 18 4 11 9 7 5 6 11
10 6 1 3 7 5 7 2 7 7 7 2 -4 -6 10 19 19 21 14 12 6 -1 9 11 11 11 12 2 -1 5 11 5 -1 9 12 12 9 6 6 7 6 7 2 9 9 15 12
6 8 12 8 9 5 -0 -2 5 1 -2 6 3 3 8 -0 -1 13 13 4 7 10 10 10 11 8 9 11 12 11 10 11 17 14 11 16 8 -4 -1 17 41 -4 11 -1 4 16 4
6 10 9 6 7 7 3 8 11 6 5 -1 4 6 9 7 5 8 9 16 12 10 9 11 3 12 9 10 7 6 10 11 7 9 13 10 18 8 14 13 -12 0 -6 5 21 1 6
6 7 9 8 10 9 6 3 2 9 12 13 9 7 8 9 7 6 6 12 10 6 8 10 9 9 9 9 9 11 10 3 13 14 29 8 -2 12 10 7 -1 -1 4 6 2 12 11
4 4 4 5 6 8 8 7 9 8 7 4 1 2 3 2 9 7 9 12 11 11 9 7 12 7 12 12 15 21 16 9 12 8 8 -3 8 7 10 5 11 21 -5 10 6 15 4
Height
5851 5852 5853 5854 5856 5857 5859 5860 5860 5861 5861 5861 5862 5862 5863 5864 5865 5866 5867 5867 5868 5868 5868 5868 5867 5867 5866 5866 5865 5863 5861 5859 5857 5855 5853 5851 5848 5846 5843 5841 5838 5835 5832 5828 5825 5821 5818
5853 5855 5856 5857 5859 5860 5861 5862 5863 5863 5864 5864 5864 5865 5865 5866 5867 5867 5868 5869 5870 5869 5869 5869 5868 5867 5867 5866 5864 5863 5861 5859 5857 5855 5853 5850 5848 5845 5843 5840 5837 5834 5831 5828 5824 5820 5817
5856 5858 5859 5860 5861 5862 5863 5864 5865 5866 5866 5866 5867 5867 5867 5868 5868 5869 5870 5870 5870 5870 5870 5869 5868 5867 5866 5866 5863 5862 5860 5858 5856 5854 5852 5849 5847 5845 5841 5838 5835 5832 5829 5826 5823 5819 5815
5858 5860 5861 5862 5863 5864 5865 5866 5867 5867 5867 5868 5868 5868 5868 5869 5869 5870 5870 5870 5870 5870 5869 5869 5868 5867 5865 5864 5863 5861 5859 5857 5855 5852 5850 5848 5845 5843 5839 5836 5833 5830 5827 5823 5820 5817 5813
5860 5861 5862 5863 5864 5865 5866 5866 5867 5868 5868 5869 5869 5869 5869 5870 5870 5870 5871 5870 5870 5869 5868 5867 5867 5866 5865 5863 5861 5859 5857 5855 5853 5851 5848 5845 5843 5840 5838 5834 5831 5827 5824 5820 5816 5813 5811
5860 5862 5863 5864 5865 5865 5866 5867 5867 5868 5868 5869 5869 5869 5869 5870 5870 5870 5870 5870 5870 5869 5868 5867 5865 5866 5864 5862 5859 5857 5855 5853 5850 5848 5845 5843 5840 5837 5834 5831 5828 5824 5821 5817 5813 5811 5806
5860 5862 5862 5863 5864 5865 5866 5867 5867 5868 5868 5868 5868 5869 5869 5870 5870 5869 5870 5869 5870 5869 5866 5866 5865 5863 5861 5859 5857 5855 5852 5850 5847 5845 5842 5839 5837 5833 5831 5828 5824 5821 5817 5814 5809 5806 5804
5860 5861 5862 5863 5864 5865 5865 5866 5867 5867 5868 5868 5868 5868 5868 5868 5868 5868 5868 5867 5867 5866 5865 5863 5862 5860 5858 5856 5854 5851 5849 5847 5844 5841 5839 5837 5833 5830 5827 5823 5820 5816 5812 5809 5805 5800 5797
5859 5860 5861 5862 5863 5864 5865 5865 5865 5865 5866 5866 5866 5866 5867 5867 5866 5866 5865 5865 5864 5863 5862 5861 5858 5857 5855 5853 5850 5848 5846 5843 5840 5838 5835 5832 5829 5825 5822 5818 5814 5810 5806 5803 5799 5795 5791
5857 5858 5859 5860 5862 5862 5863 5863 5864 5864 5864 5864 5864 5864 5864 5864 5865 5863 5862 5861 5860 5859 5858 5858 5855 5852 5850 5848 5846 5843 5841 5839 5836 5833 5830 5828 5824 5820 5817 5813 5809 5805 5801 5796 5792 5788 5784
5854 5855 5856 5857 5859 5860 5860 5860 5861 5861 5861 5861 5860 5860 5860 5860 5859 5859 5859 5857 5856 5855 5854 5853 5850 5848 5846 5844 5842 5839 5836 5833 5831 5828 5826 5822 5818 5814 5810 5807 5802 5799 5794 5789 5785 5780 5776
5851 5852 5853 5855 5855 5855 5856 5857 5857 5857 5858 5857 5857 5857 5856 5856 5855 5855 5854 5853 5852 5852 5849 5848 5845 5843 5841 5839 5836 5834 5832 5829 5825 5823 5819 5815 5812 5808 5804 5799 5795 5790 5786 5781 5776 5772 5768
5846 5848 5849 5850 5851 5851 5852 5852 5852 5852 5852 5852 5852 5852 5851 5851 5850 5849 5848 5848 5848 5845 5844 5842 5840 5837 5836 5833 5831 5828 5825 5823 5819 5815 5813 5809 5805 5801 5797 5792 5788 5783 5778 5772 5767 5763 5758
5841 5843 5843 5844 5845 5846 5846 5847 5847 5846 5846 5846 5846 5846 5845 5845 5844 5843 5842 5842 5841 5839 5837 5835 5833 5831 5829 5827 5824 5821 5818 5816 5812 5809 5804 5801 5798 5794 5790 5785 5780 5775 5771 5766 5758 5754 5751
5835 5836 5837 5838 5838 5839 5839 5840 5840 5840 5840 5840 5840 5839 5838 5838 5838 5837 5837 5836 5833 5832 5831 5828 5827 5824 5823 5819 5816 5813 5811 5809 5805 5801 5798 5792 5788 5785 5781 5776 5772 5766 5762 5757 5751 5748 5743
5827 5828 5830 5831 5832 5832 5833 5833 5833 5834 5834 5833 5833 5833 5832 5831 5830 5830 5829 5828 5825 5824 5822 5820 5818 5816 5814 5811 5808 5804 5802 5801 5796 5793 5788 5785 5778 5776 5772 5767 5763 5757 5753 5747 5742 5737 5731
5819 5820 5822 5824 5825 5825 5825 5826 5826 5826 5827 5827 5826 5825 5825 5824 5823 5822 5821 5819 5818 5816 5813 5812 5810 5807 5805 5802 5799 5796 5793 5791 5786 5782 5777 5773 5769 5766 5762 5757 5752 5747 5742 5737 5733 5728 5718
5810 5812 5813 5814 5815 5817 5816 5817 5818 5818 5818 5817 5817 5817 5816 5815 5815 5813 5811 5810 5809 5807 5804 5802 5800 5797 5794 5791 5788 5785 5783 5779 5775 5770 5766 5762 5756 5753 5751 5746 5743 5737 5731 5726 5721 5717 5708
5801 5802 5803 5804 5805 5806 5806 5807 5808 5808 5807 5808 5807 5807 5806 5805 5803 5803 5801 5800 5798 5797 5794 5791 5788 5786 5784 5781 5776 5774 5771 5769 5763 5759 5755 5751 5745 5742 5738 5735 5731 5724 5720 5715 5709 5702 5698
5789 5790 5792 5793 5794 5794 5795 5795 5796 5797 5797 5796 5796 5795 5795 5794 5792 5790 5789 5788 5786 5784 5782 5779 5776 5773 5771 5768 5764 5762 5758 5754 5751 5747 5744 5739 5736 5732 5728 5725 5721 5712 5707 5703 5695 5688 5686
5776 5778 5779 5780 5782 5782 5783 5783 5783 5784 5784 5784 5783 5782 5782 5782 5780 5779 5778 5776 5775 5771 5768 5765 5764 5762 5758 5755 5753 5750 5745 5742 5739 5735 5731 5726 5722 5718 5716 5712 5708 5702 5696 5693 5682 5681 5669
5762 5764 5765 5766 5769 5769 5769 5770 5770 5771 5771 5771 5768 5769 5768 5768 5768 5766 5763 5764 5760 5757 5755 5752 5750 5748 5745 5743 5739 5734 5732 5731 5728 5723 5718 5714 5707 5705 5701 5698 5692 5689 5686 5681 5675 5668 5658
5748 5749 5750 5751 5752 5754 5754 5755 5756 5757 5757 5756 5756 5754 5752 5755 5754 5752 5752 5749 5746 5743 5742 5739 5735 5732 5730 5729 5724 5722 5719 5716 5713 5710 5705 5699 5695 5689 5687 5682 5678 5678 5675 5668 5665 5656 5647
5734 5735 5736 5737 5738 5738 5739 5739 5740 5740 5740 5740 5740 5738 5737 5738 5736 5736 5735 5734 5733 5730 5727 5726 5722 5720 5719 5714 5711 5709 5706 5704 5700 5698 5690 5685 5682 5676 5672 5668 5664 5663 5658 5653 5649 5641 5635
5717 5719 5721 5722 5723 5724 5724 5725 5726 5726 5726 5726 5725 5723 5721 5720 5721 5722 5721 5719 5718 5717 5715 5712 5710 5708 5705 5702 5698 5695 5694 5690 5689 5686 5680 5673 5669 5664 5659 5653 5650 5652 5643 5640 5634 5626 5622
5700 5701 5703 5705 5707 5708 5709 5710 5711 5711 5711 5710 5710 5708 5706 5706 5710 5709 5708 5704 5703 5702 5703 5701 5697 5694 5690 5687 5684 5680 5677 5674 5674 5671 5669 5662 5657 5652 5647 5640 5634 5634 5631 5623 5616 5610 5606
5683 5685 5686 5688 5689 5690 5692 5693 5694 5694 5695 5695 5697 5695 5691 5689 5693 5693 5691 5691 5690 5688 5687 5688 5685 5681 5677 5673 5668 5665 5663 5661 5657 5655 5653 5648 5642 5637 5631 5625 5621 5617 5614 5608 5600 5596 5587
5665 5667 5669 5670 5671 5673 5674 5675 5676 5676 5676 5677 5682 5679 5675 5674 5677 5678 5678 5678 5674 5673 5671 5671 5670 5669 5664 5659 5655 5652 5648 5646 5643 5641 5637 5634 5629 5626 5619 5613 5607 5603 5596 5593 5585 5575 5569
5643 5646 5648 5650 5652 5653 5655 5656 5657 5658 5658 5660 5665 5661 5657 5655 5663 5663 5664 5662 5661 5659 5656 5654 5653 5649 5646 5642 5639 5635 5633 5631 5629 5627 5624 5620 5616 5610 5606 5598 5590 5588 5579 5573 5567 5559 5552